2 Line ISS Keps 3-17
17 Mar
2009
17 Mar
'09
5:04 a.m.
ISS 1 25544U 98067A 09075.47729483 .00010811 00000-0 87093-4 0 4712 2 25544 051.6399 061.9180 0009436 128.4321 014.6599 15.71494551591363
5804
Age (days ago)
5804
Last active (days ago)
0 comments
1 participants
participants (1)
-
Dave Larsen PhD